| time (UTC) | temp F | wind direction | speed MPH | gust MPH | rain 1hr in | rain 24hr in | rain mn in | humidity % | barometer mb |
| 20260831214016 | 62 | 0.0 | 0.0 | 0.00 | 0.20 | 0.20 | 70 | 1021.5 | |
| 20260831213016 | 62 | 0.0 | 0.0 | 0.00 | 0.20 | 0.20 | 70 | 1021.5 | |
| 20260831212016 | 62 | 0.0 | 0.0 | 0.00 | 0.20 | 0.20 | 69 | 1021.4 | |
| 20260831211016 | 62 | 0.0 | 0.0 | 0.00 | 0.20 | 0.20 | 68 | 1021.3 | |
| 20260831210036 | 62 | 0.0 | 0.0 | 0.00 | 0.20 | 0.20 | 68 | 1021.3 | |
| 20260831205036 | 63 | 0.0 | 0.0 | 0.00 | 0.20 | 0.20 | 67 | 1021.4 | |
| 20260831204016 | 63 | 0.0 | 0.0 | 0.00 | 0.20 | 0.20 | 66 | 1021.1 | |
| 20260831203016 | 64 | 0.0 | 0.0 | 0.00 | 0.20 | 0.20 | 64 | 1021.0 | |
| 20260831202036 | 64 | 0.0 | 0.0 | 0.00 | 0.20 | 0.20 | 63 | 1021.0 | |
| 20260831201016 | 65 | 0.0 | 0.0 | 0.00 | 0.20 | 0.20 | 62 | 1020.7 | |
| 20260831200016 | 65 | 0.0 | 0.0 | 0.00 | 0.20 | 0.20 | 61 | 1020.7 | |
| 20260831195016 | 66 | 0.0 | 0.0 | 0.00 | 0.20 | 0.20 | 60 | 1020.7 | |
| 20260831194016 | 67 | 0.0 | 0.0 | 0.00 | 0.20 | 0.20 | 59 | 1020.5 | |
| 20260831193016 | 67 | 0.0 | 0.0 | 0.00 | 0.20 | 0.20 | 57 | 1020.4 | |
| 20260831192016 | 68 | 0.0 | 0.0 | 0.00 | 0.20 | 0.20 | 56 | 1020.4 | |
| 20260831191016 | 68 | 0.0 | 0.0 | 0.00 | 0.20 | 0.20 | 55 | 1020.3 | |
| 20260831190036 | 68 | 0.0 | 2.0 | 0.00 | 0.20 | 0.20 | 55 | 1020.2 | |
| 20260831185016 | 69 | 0.0 | 0.0 | 0.00 | 0.20 | 0.20 | 54 | 1020.1 | |
| 20260831184015 | 69 | 0.0 | 4.0 | 0.00 | 0.20 | 0.20 | 53 | 1019.9 | |
| 20260831183015 | 70 | 0.0 | 4.0 | 0.00 | 0.20 | 0.20 | 52 | 1019.6 | |
| 20260831182016 | 70 | 0.0 | 3.0 | 0.00 | 0.20 | 0.20 | 51 | 1019.5 | |
| 20260831181016 | 71 | 0.0 | 4.0 | 0.00 | 0.20 | 0.20 | 50 | 1019.2 | |
| 20260831180016 | 71 | 293 | 1.0 | 7.0 | 0.00 | 0.20 | 0.20 | 49 | 1019.0 |
| 20260831175015 | 72 | 0.0 | 4.0 | 0.00 | 0.20 | 0.20 | 50 | 1018.9 | |
| 20260831174015 | 72 | 315 | 1.0 | 6.0 | 0.00 | 0.20 | 0.20 | 52 | 1018.7 |
| 20260831173016 | 73 | 0 | 1.0 | 5.0 | 0.00 | 0.20 | 0.20 | 53 | 1018.8 |
| 20260831172015 | 73 | 0 | 1.0 | 6.0 | 0.00 | 0.20 | 0.20 | 52 | 1018.6 |
| 20260831171016 | 74 | 315 | 2.0 | 7.0 | 0.00 | 0.20 | 0.20 | 52 | 1018.3 |
| 20260831170016 | 74 | 315 | 1.0 | 3.0 | 0.00 | 0.20 | 0.20 | 52 | 1018.2 |
| 20260831165016 | 74 | 315 | 1.0 | 4.0 | 0.00 | 0.20 | 0.20 | 51 | 1018.1 |
| 20260831164015 | 75 | 338 | 1.0 | 4.0 | 0.00 | 0.20 | 0.20 | 50 | 1018.0 |
| 20260831163015 | 75 | 0.0 | 2.0 | 0.00 | 0.20 | 0.20 | 51 | 1018.1 | |
| 20260831162015 | 75 | 0.0 | 3.0 | 0.00 | 0.20 | 0.20 | 50 | 1017.9 | |
| 20260831161015 | 76 | 0.0 | 2.0 | 0.00 | 0.20 | 0.20 | 51 | 1018.0 | |
| 20260831160015 | 76 | 0.0 | 2.0 | 0.00 | 0.20 | 0.20 | 50 | 1018.0 | |
| 20260831155015 | 76 | 0.0 | 3.0 | 0.00 | 0.20 | 0.20 | 50 | 1017.9 | |
| 20260831154015 | 76 | 0.0 | 2.0 | 0.00 | 0.20 | 0.20 | 51 | 1017.9 | |
| 20260831153015 | 76 | 0.0 | 2.0 | 0.00 | 0.20 | 0.20 | 50 | 1017.9 | |
| 20260831152015 | 76 | 0.0 | 6.0 | 0.00 | 0.20 | 0.20 | 49 | 1018.1 | |
| 20260831151016 | 76 | 338 | 1.0 | 6.0 | 0.00 | 0.20 | 0.20 | 49 | 1018.0 |
| 20260831150016 | 76 | 0.0 | 2.0 | 0.00 | 0.20 | 0.20 | 49 | 1017.9 | |
| 20260831145016 | 76 | 0.0 | 2.0 | 0.00 | 0.20 | 0.20 | 47 | 1018.0 | |
| 20260831144015 | 76 | 338 | 1.0 | 4.0 | 0.00 | 0.20 | 0.20 | 47 | 1018.0 |
| 20260831143015 | 76 | 0.0 | 3.0 | 0.00 | 0.20 | 0.20 | 49 | 1017.9 | |
| 20260831142016 | 76 | 315 | 1.0 | 5.0 | 0.00 | 0.20 | 0.20 | 46 | 1018.0 |
| 20260831141015 | 77 | 315 | 1.0 | 5.0 | 0.00 | 0.20 | 0.20 | 48 | 1018.1 |
| 20260831140015 | 76 | 338 | 1.0 | 4.0 | 0.00 | 0.20 | 0.20 | 48 | 1018.1 |
| 20260831135036 | 76 | 338 | 1.0 | 4.0 | 0.00 | 0.20 | 0.20 | 48 | 1018.1 |
| 20260831134015 | 76 | 338 | 1.0 | 6.0 | 0.00 | 0.20 | 0.20 | 49 | 1018.3 |
| 20260831133036 | 76 | 338 | 1.0 | 4.0 | 0.00 | 0.20 | 0.20 | 51 | 1018.4 |
| 20260831132015 | 76 | 0.0 | 3.0 | 0.00 | 0.20 | 0.20 | 51 | 1018.4 | |
| 20260831131016 | 76 | 45 | 1.0 | 6.0 | 0.00 | 0.20 | 0.20 | 52 | 1018.5 |
| 20260831130015 | 76 | 45 | 1.0 | 5.0 | 0.00 | 0.20 | 0.20 | 52 | 1018.6 |
| 20260831125015 | 75 | 338 | 1.0 | 3.0 | 0.00 | 0.20 | 0.20 | 55 | 1018.7 |
| 20260831124036 | 75 | 338 | 1.0 | 5.0 | 0.00 | 0.20 | 0.20 | 56 | 1018.5 |
| 20260831123016 | 75 | 315 | 2.0 | 6.0 | 0.00 | 0.20 | 0.20 | 55 | 1018.5 |
| 20260831122015 | 75 | 0 | 1.0 | 8.0 | 0.00 | 0.20 | 0.20 | 56 | 1018.5 |
| 20260831121015 | 75 | 0.0 | 2.0 | 0.00 | 0.20 | 0.20 | 55 | 1018.6 | |
| 20260831120015 | 75 | 0 | 1.0 | 5.0 | 0.00 | 0.20 | 0.20 | 56 | 1018.6 |
| 20260831115115 | 75 | 0.0 | 1.0 | 0.00 | 0.20 | 0.20 | 57 | 1018.6 | |
| 20260831114016 | 74 | 0.0 | 2.0 | 0.00 | 0.20 | 0.20 | 56 | 1018.8 | |
| 20260831113015 | 74 | 293 | 1.0 | 4.0 | 0.00 | 0.20 | 0.20 | 59 | 1018.8 |
| 20260831112015 | 74 | 270 | 1.0 | 4.0 | 0.00 | 0.20 | 0.20 | 58 | 1018.9 |
| 20260831111017 | 74 | 270 | 1.0 | 5.0 | 0.00 | 0.20 | 0.20 | 59 | 1018.8 |
| 20260831110017 | 73 | 315 | 1.0 | 5.0 | 0.00 | 0.20 | 0.20 | 61 | 1018.9 |
| 20260831105017 | 73 | 270 | 1.0 | 6.0 | 0.00 | 0.20 | 0.20 | 57 | 1018.8 |
| 20260831104017 | 73 | 315 | 1.0 | 6.0 | 0.00 | 0.20 | 0.20 | 57 | 1018.8 |
| 20260831103017 | 73 | 270 | 1.0 | 4.0 | 0.00 | 0.20 | 0.20 | 58 | 1019.0 |
| 20260831102017 | 72 | 0.0 | 3.0 | 0.00 | 0.20 | 0.20 | 61 | 1019.0 | |
| 20260831101037 | 72 | 270 | 1.0 | 3.0 | 0.00 | 0.20 | 0.20 | 62 | 1018.9 |
| 20260831100017 | 71 | 270 | 1.0 | 3.0 | 0.00 | 0.20 | 0.20 | 63 | 1018.9 |
| 20260831095017 | 71 | 0 | 1.0 | 7.0 | 0.00 | 0.20 | 0.20 | 65 | 1019.0 |
| 20260831094017 | 71 | 315 | 1.0 | 8.0 | 0.00 | 0.20 | 0.20 | 65 | 1019.1 |
| 20260831093017 | 70 | 315 | 1.0 | 4.0 | 0.00 | 0.20 | 0.20 | 67 | 1019.0 |
| 20260831092017 | 70 | 0.0 | 4.0 | 0.00 | 0.20 | 0.20 | 71 | 1018.9 | |
| 20260831091017 | 70 | 0.0 | 5.0 | 0.00 | 0.20 | 0.20 | 72 | 1019.1 | |
| 20260831090017 | 70 | 0.0 | 3.0 | 0.00 | 0.20 | 0.20 | 72 | 1019.0 | |
| 20260831085017 | 70 | 315 | 1.0 | 3.0 | 0.00 | 0.20 | 0.20 | 72 | 1018.9 |
| 20260831084017 | 69 | 0.0 | 3.0 | 0.00 | 0.20 | 0.20 | 74 | 1019.0 | |
| 20260831083017 | 68 | 0.0 | 3.0 | 0.00 | 0.20 | 0.20 | 78 | 1018.8 | |
| 20260831082017 | 68 | 0.0 | 1.0 | 0.00 | 0.20 | 0.20 | 79 | 1018.8 | |
| 20260831081017 | 67 | 0.0 | 2.0 | 0.00 | 0.20 | 0.20 | 83 | 1018.8 | |
| 20260831080017 | 64 | 0.0 | 3.0 | 0.00 | 0.20 | 0.20 | 87 | 1018.6 | |
| 20260831075015 | 64 | 0.0 | 4.0 | 0.00 | 0.20 | 0.20 | 89 | 1018.6 | |
| 20260831074057 | 64 | 0.0 | 1.0 | 0.00 | 0.20 | 0.20 | 90 | 1018.5 | |
| 20260831073017 | 64 | 0.0 | 0.0 | 0.00 | 0.20 | 0.20 | 90 | 1018.3 | |
| 20260831072017 | 64 | 0.0 | 3.0 | 0.00 | 0.20 | 0.20 | 91 | 1018.3 | |
| 20260831071017 | 64 | 338 | 1.0 | 6.0 | 0.00 | 0.20 | 0.20 | 91 | 1018.4 |
| 20260831070017 | 64 | 0.0 | 2.0 | 0.00 | 0.20 | 0.20 | 92 | 1018.3 | |
| 20260831065017 | 64 | 0.0 | 2.0 | 0.00 | 0.20 | 0.20 | 93 | 1018.1 | |
| 20260831064017 | 64 | 0 | 1.0 | 6.0 | 0.00 | 0.20 | 0.20 | 94 | 1018.1 |
| 20260831063017 | 63 | 0.0 | 3.0 | 0.00 | 0.20 | 0.20 | 94 | 1018.0 | |
| 20260831062017 | 63 | 0.0 | 1.0 | 0.00 | 0.20 | 0.20 | 94 | 1018.0 | |
| 20260831061017 | 63 | 0.0 | 0.0 | 0.00 | 0.20 | 0.20 | 93 | 1018.0 | |
| 20260831060017 | 63 | 0.0 | 0.0 | 0.00 | 0.20 | 0.20 | 93 | 1017.7 | |
| 20260831055017 | 62 | 0.0 | 0.0 | 0.00 | 0.20 | 0.20 | 93 | 1017.6 | |
| 20260831054017 | 62 | 0.0 | 0.0 | 0.00 | 0.20 | 0.20 | 93 | 1017.7 | |
| 20260831053017 | 62 | 0.0 | 0.0 | 0.00 | 0.20 | 0.20 | 93 | 1017.6 | |
| 20260831052037 | 61 | 0.0 | 0.0 | 0.00 | 0.20 | 0.20 | 92 | 1017.6 | |
| 20260831051037 | 61 | 0.0 | 0.0 | 0.00 | 0.20 | 0.20 | 92 | 1017.6 | |
| 20260831050017 | 61 | 0.0 | 0.0 | 0.00 | 0.20 | 0.20 | 92 | 1017.6 | |
| 20260831045017 | 61 | 0.0 | 0.0 | 0.00 | 0.20 | 0.20 | 92 | 1017.5 | |
| 20260831044017 | 62 | 0.0 | 0.0 | 0.00 | 0.20 | 0.20 | 92 | 1017.5 | |
| 20260831043037 | 62 | 0.0 | 0.0 | 0.00 | 0.20 | 0.20 | 92 | 1017.6 | |
| 20260831042017 | 62 | 0.0 | 0.0 | 0.00 | 0.20 | 0.20 | 92 | 1017.6 | |
| 20260831040017 | 62 | 0.0 | 0.0 | 0.00 | 0.20 | 0.20 | 91 | 1017.4 | |
| 20260831035017 | 62 | 0.0 | 0.0 | 0.00 | 0.20 | 0.20 | 91 | 1017.5 | |
| 20260831034037 | 62 | 0.0 | 0.0 | 0.00 | 0.20 | 0.20 | 91 | 1017.6 | |
| 20260831033037 | 63 | 0.0 | 0.0 | 0.00 | 0.20 | 0.20 | 91 | 1017.7 | |
| 20260831032017 | 63 | 0.0 | 0.0 | 0.00 | 0.20 | 0.20 | 91 | 1017.6 | |
| 20260831031017 | 63 | 0.0 | 0.0 | 0.00 | 0.20 | 0.20 | 91 | 1017.7 | |
| 20260831030017 | 63 | 0.0 | 0.0 | 0.00 | 0.20 | 0.20 | 90 | 1017.6 | |
| 20260831025017 | 63 | 0.0 | 0.0 | 0.00 | 0.20 | 0.20 | 90 | 1017.5 | |
| 20260831024017 | 63 | 0.0 | 0.0 | 0.00 | 0.20 | 0.20 | 90 | 1017.3 | |
| 20260831023017 | 64 | 0.0 | 0.0 | 0.00 | 0.20 | 0.20 | 90 | 1017.0 | |
| 20260831022037 | 64 | 0.0 | 0.0 | 0.00 | 0.20 | 0.20 | 89 | 1017.0 | |
| 20260831021017 | 64 | 0.0 | 0.0 | 0.02 | 0.20 | 0.20 | 89 | 1017.0 | |
| 20260831020017 | 64 | 0.0 | 0.0 | 0.03 | 0.20 | 0.20 | 89 | 1017.0 | |
| 20260831015037 | 64 | 0.0 | 0.0 | 0.16 | 0.20 | 0.20 | 88 | 1017.1 | |
| 20260831014017 | 64 | 0.0 | 0.0 | 0.20 | 0.20 | 0.20 | 88 | 1017.1 | |
| 20260831013017 | 65 | 0.0 | 0.0 | 0.20 | 0.20 | 0.20 | 87 | 1017.1 | |
| 20260831012017 | 65 | 0.0 | 0.0 | 0.20 | 0.20 | 0.20 | 87 | 1017.3 | |
| 20260831011016 | 65 | 0.0 | 2.0 | 0.18 | 0.18 | 0.18 | 86 | 1017.2 | |
| 20260831010017 | 66 | 0.0 | 1.0 | 0.17 | 0.17 | 0.17 | 86 | 1016.9 | |
| 20260831005017 | 65 | 0 | 1.0 | 5.0 | 0.05 | 0.05 | 0.06 | 87 | 1017.6 |
| 20260831004017 | 65 | 0.0 | 5.0 | 0.00 | 0.00 | 0.00 | 88 | 1017.1 | |
| 20260831003017 | 65 | 0.0 | 3.0 | 0.00 | 0.00 | 0.00 | 88 | 1016.0 | |
| 20260831002017 | 64 | 0.0 | 1.0 | 0.00 | 0.00 | 0.00 | 87 | 1015.5 | |
| 20260831001018 | 63 | 0.0 | 0.0 | 0.00 | 0.00 | 0.00 | 84 | 1015.0 | |
| 20260831000017 | 63 | 0.0 | 0.0 | 0.00 | 0.00 | 0.00 | 82 | 1014.7 | |
| 20260830235057 | 64 | 0.0 | 0.0 | 0.00 | 0.00 | 0.00 | 82 | 1014.4 | |
| 20260830234016 | 64 | 0.0 | 0.0 | 0.00 | 0.00 | 0.00 | 82 | 1014.4 | |
| 20260830233017 | 64 | 0.0 | 0.0 | 0.00 | 0.00 | 0.00 | 81 | 1014.4 | |
| 20260830232017 | 64 | 0.0 | 0.0 | 0.00 | 0.00 | 0.00 | 81 | 1014.4 | |
| 20260830231016 | 65 | 0.0 | 0.0 | 0.00 | 0.00 | 0.00 | 81 | 1014.6 | |
| 20260830230017 | 65 | 0.0 | 0.0 | 0.00 | 0.00 | 0.00 | 80 | 1014.7 | |
| 20260830225016 | 65 | 0.0 | 0.0 | 0.00 | 0.00 | 0.00 | 80 | 1014.7 | |
| 20260830224017 | 65 | 0.0 | 0.0 | 0.00 | 0.00 | 0.00 | 79 | 1014.8 | |
| 20260830223037 | 66 | 0.0 | 0.0 | 0.00 | 0.00 | 0.00 | 79 | 1014.9 | |
| 20260830222036 | 66 | 0.0 | 0.0 | 0.00 | 0.00 | 0.00 | 79 | 1014.9 | |
| 20260830221017 | 66 | 0.0 | 0.0 | 0.00 | 0.00 | 0.00 | 79 | 1014.9 | |
| 20260830220016 | 67 | 0.0 | 0.0 | 0.00 | 0.00 | 0.00 | 79 | 1015.0 | |
| 20260830215017 | 67 | 0.0 | 0.0 | 0.00 | 0.00 | 0.00 | 79 | 1014.9 |